Location: Clifton Park
(41.4873°N, 81.8024°W)
Time: 18:43:44
(UTC+00:00)

Cosmos 2228 - Pass Details

Date: 21 January 2020
Orbit: 588 x 619 km, 82.5° (Epoch: 15 February)

Event Time Altitude Azimuth Distance (km) Brightness Sun altitude
Rises 10:49:12 0° 178° (S) 2,878 6.6 -22.1°
Reaches altitude 10° 10:51:26 10° 174° (S) 1,978 5.8 -21.7°
Maximum altitude 10:55:45 61° 95° (E) 704 3.5 -20.9°
Drops below altitude 10° 11:00:06 10° 15° (NNE) 1,990 5.7 -20.1°
Sets 11:02:21 0° 12° (NNE) 2,898 6.5 -19.7°
